Weather History for Michigan City, IN

Change the Weather History Date:

Saturday, November 16, 2013

  Actual Average (KVPZ) Record (KVPZ)
Temperature  
Mean Temperature 50 °F 41 °F  
Max Temperature 59 °F 48 °F 66 °F (2001)
Min Temperature 41 °F 33 °F 21 °F (2005)
Degree Days  
Heating Degree Days 15 24  
Month to date heating degree days 335  
Since 1 July heating degree days 865  
Cooling Degree Days 0 0  
Month to date cooling degree days 0  
Year to date cooling degree days 713  
Moisture  
Dew Point 44 °F    
Average Humidity 80    
Maximum Humidity 94    
Minimum Humidity 66    
Precipitation  
Precipitation 0.00 in 0.11 in 0.16 in (2006)
Month to date precipitation 1.93  
Year to date precipitation 33.93  
Sea Level Pressure  
Sea Level Pressure 29.84 in    
Wind  
Wind Speed 10 mph (South)    
Max Wind Speed 17 mph    
Max Gust Speed 30 mph    
Visibility 9 miles    
Events Rain    
T = Trace of Precipitation, MM = Missing Value Source: NWS Daily Summary

Daily Weather History Graph

Daily Weather History Graph

Search for Another Location

Airport:

Trip Planner

Search our weather history database for the weather conditions in past years. The results will help you decide how hot, cold, wet, or windy it might be!

Date:

Astronomy

Nov. 16, 2013 Rise Set
Actual Time 6:37 AM CST 4:25 PM CST
Civil Twilight 6:08 AM CST 4:55 PM CST
Nautical Twilight 5:34 AM CST 5:29 PM CST
Astronomical Twilight 5:01 AM CST 6:02 PM CST
Moon 4:01 PM CST (11/16) 5:33 AM CST (11/16)
Length of Visible Light 10h 47m
Length of Day
9h 47m
Waxing Gibbous, 99% of the Moon is Illuminated
Nov 16
Waxing Gibbous
Nov 17
Full
Nov 25
Last Quarter
Dec 2
New
Dec 9
First Quarter

Hourly Weather History & Observations

Time (CST) Temp. Windchill Dew Point Humidity Pressure Visibility Wind Dir Wind Speed Gust Speed Precip Events Conditions
12:15 AM 42.8 °F 36.6 °F 32.0 °F 66% 29.98 in 10.0 mi South 11.5 mph - N/A   Clear
12:35 AM 41.0 °F 35.2 °F 32.0 °F 70% 29.98 in 10.0 mi South 9.2 mph - N/A   Clear
12:55 AM 42.8 °F 37.5 °F 32.0 °F 66% 29.98 in 10.0 mi South 9.2 mph 16.1 mph N/A   Clear
1:15 AM 41.0 °F 35.8 °F 33.8 °F 76% 29.98 in 10.0 mi South 8.1 mph - N/A   Clear
1:35 AM 41.0 °F 35.2 °F 33.8 °F 76% 29.97 in 10.0 mi South 9.2 mph - N/A   Clear
1:55 AM 41.0 °F 35.2 °F 33.8 °F 76% 29.98 in 10.0 mi South 9.2 mph - N/A   Clear
2:15 AM 41.0 °F 34.7 °F 33.8 °F 76% 29.98 in 10.0 mi South 10.4 mph - N/A   Scattered Clouds
2:35 AM 41.0 °F 37.1 °F 33.8 °F 76% 29.98 in 10.0 mi South 5.8 mph - N/A   Scattered Clouds
2:55 AM 41.0 °F 35.8 °F 33.8 °F 76% 29.99 in 10.0 mi South 8.1 mph - N/A   Mostly Cloudy
3:15 AM 41.0 °F 35.2 °F 33.8 °F 76% 29.98 in 10.0 mi South 9.2 mph - N/A   Overcast
3:35 AM 41.0 °F 35.2 °F 35.6 °F 81% 29.98 in 10.0 mi South 9.2 mph - N/A   Overcast
3:55 AM 42.8 °F 39.3 °F 35.6 °F 76% 29.98 in 10.0 mi South 5.8 mph - N/A   Overcast
4:15 AM 42.8 °F 37.5 °F 35.6 °F 76% 29.98 in 10.0 mi South 9.2 mph - N/A   Overcast
4:35 AM 44.6 °F 40.2 °F 37.4 °F 76% 29.97 in 10.0 mi South 8.1 mph 16.1 mph N/A   Overcast
4:55 AM 42.8 °F 37.5 °F 37.4 °F 81% 29.97 in 10.0 mi SSE 9.2 mph - N/A   Overcast
5:15 AM 42.8 °F 39.3 °F 37.4 °F 81% 29.96 in 10.0 mi SSE 5.8 mph - N/A   Overcast
5:35 AM 44.6 °F 40.7 °F 37.4 °F 76% 29.96 in 10.0 mi South 6.9 mph - N/A   Overcast
5:55 AM 44.6 °F 40.7 °F 39.2 °F 81% 29.96 in 10.0 mi SSE 6.9 mph - N/A   Overcast
6:15 AM 44.6 °F 41.4 °F 39.2 °F 81% 29.96 in 10.0 mi SSE 5.8 mph - N/A   Overcast
6:35 AM 44.6 °F 40.2 °F 41.0 °F 87% 29.95 in 10.0 mi South 8.1 mph - N/A   Overcast
6:55 AM 44.6 °F 41.4 °F 41.0 °F 87% 29.95 in 10.0 mi SSE 5.8 mph - N/A   Overcast
7:15 AM 46.4 °F 41.9 °F 41.0 °F 81% 29.95 in 10.0 mi SSE 9.2 mph - N/A   Overcast
7:35 AM 46.4 °F 42.9 °F 42.8 °F 87% 29.95 in 7.0 mi SSE 6.9 mph - N/A   Overcast
7:55 AM 46.4 °F 41.5 °F 42.8 °F 87% 29.94 in 7.0 mi SSE 10.4 mph - N/A   Overcast
8:15 AM 46.4 °F 41.5 °F 42.8 °F 87% 29.94 in 7.0 mi South 10.4 mph 19.6 mph N/A   Overcast
8:35 AM 48.2 °F - 42.8 °F 82% 29.94 in 7.0 mi SSE 8.1 mph 18.4 mph N/A   Overcast
8:55 AM 48.2 °F - 42.8 °F 82% 29.94 in 7.0 mi South 12.7 mph 21.9 mph N/A   Overcast
9:15 AM 48.2 °F - 42.8 °F 82% 29.93 in 7.0 mi South 17.3 mph 23.0 mph N/A   Overcast
9:35 AM 50.0 °F - 44.6 °F 82% 29.92 in 7.0 mi South 12.7 mph 20.7 mph N/A   Overcast
9:55 AM 50.0 °F - 44.6 °F 82% 29.92 in 7.0 mi South 13.8 mph 24.2 mph N/A   Overcast
10:15 AM 50.0 °F - 44.6 °F 82% 29.92 in 7.0 mi South 13.8 mph 23.0 mph N/A   Overcast
10:35 AM 50.0 °F - 44.6 °F 82% 29.90 in 7.0 mi South 13.8 mph 23.0 mph N/A   Overcast
10:55 AM 50.0 °F - 44.6 °F 82% 29.89 in 7.0 mi South 12.7 mph 21.9 mph N/A   Overcast
11:15 AM 50.0 °F - 44.6 °F 82% 29.89 in 7.0 mi South 12.7 mph 20.7 mph N/A   Overcast
11:35 AM 50.0 °F - 44.6 °F 82% 29.87 in 5.0 mi South 10.4 mph 20.7 mph N/A   Haze
11:55 AM 51.8 °F - 46.4 °F 82% 29.86 in 7.0 mi South 10.4 mph 19.6 mph N/A   Overcast
12:15 PM 51.8 °F - 46.4 °F 82% 29.84 in 7.0 mi South 9.2 mph 24.2 mph N/A   Overcast
12:35 PM 51.8 °F - 46.4 °F 82% 29.82 in 7.0 mi SSE 10.4 mph 17.3 mph N/A   Overcast
12:55 PM 53.6 °F - 46.4 °F 77% 29.82 in 7.0 mi South 12.7 mph 18.4 mph N/A   Overcast
1:15 PM 53.6 °F - 46.4 °F 77% 29.81 in 7.0 mi South 15.0 mph 21.9 mph N/A   Overcast
1:35 PM 53.6 °F - 46.4 °F 77% 29.80 in 10.0 mi South 12.7 mph 19.6 mph N/A   Overcast
1:55 PM 53.6 °F - 46.4 °F 77% 29.79 in 10.0 mi South 13.8 mph 25.3 mph N/A   Overcast
2:15 PM 55.4 °F - 46.4 °F 72% 29.78 in 10.0 mi South 10.4 mph 19.6 mph N/A   Overcast
2:35 PM 55.4 °F - 46.4 °F 72% 29.78 in 10.0 mi South 13.8 mph 21.9 mph N/A   Overcast
2:55 PM 55.4 °F - 46.4 °F 72% 29.78 in 10.0 mi South 13.8 mph 23.0 mph N/A   Overcast
3:15 PM 55.4 °F - 46.4 °F 72% 29.77 in 10.0 mi SSE 10.4 mph 18.4 mph N/A   Overcast
3:35 PM 55.4 °F - 46.4 °F 72% 29.76 in 10.0 mi South 11.5 mph 18.4 mph N/A   Mostly Cloudy
3:55 PM 55.4 °F - 46.4 °F 72% 29.76 in 10.0 mi SSE 11.5 mph 18.4 mph N/A   Scattered Clouds
4:15 PM 55.4 °F - 46.4 °F 72% 29.75 in 10.0 mi SSE 11.5 mph 19.6 mph N/A   Mostly Cloudy
4:35 PM 55.4 °F - 46.4 °F 72% 29.76 in 10.0 mi South 12.7 mph 19.6 mph N/A   Overcast
4:55 PM 55.4 °F - 46.4 °F 72% 29.75 in 10.0 mi SSE 9.2 mph 17.3 mph N/A   Overcast
5:15 PM 55.4 °F - 46.4 °F 72% 29.74 in 10.0 mi South 13.8 mph 17.3 mph N/A   Overcast
5:35 PM 55.4 °F - 48.2 °F 77% 29.75 in 10.0 mi SSE 10.4 mph 17.3 mph N/A   Light Drizzle
5:55 PM 55.4 °F - 48.2 °F 77% 29.73 in 10.0 mi SSE 8.1 mph 16.1 mph N/A   Light Drizzle
6:15 PM 55.4 °F - 48.2 °F 77% 29.72 in 10.0 mi SSE 8.1 mph 20.7 mph N/A   Overcast
6:35 PM 55.4 °F - 48.2 °F 77% 29.72 in 10.0 mi SSE 9.2 mph - N/A   Overcast
6:55 PM 55.4 °F - 48.2 °F 77% 29.71 in 10.0 mi SSE 15.0 mph 20.7 mph N/A   Overcast
7:15 PM 53.6 °F - 50.0 °F 88% 29.66 in 10.0 mi SSE 15.0 mph 27.6 mph N/A Rain Light Rain
7:35 PM 53.6 °F - 50.0 °F 88% 29.66 in 10.0 mi South 17.3 mph 28.8 mph N/A   Overcast
7:55 PM 53.6 °F - 50.0 °F 88% 29.66 in 10.0 mi South 17.3 mph 27.6 mph N/A Rain Light Rain
8:15 PM 53.6 °F - 50.0 °F 88% 29.68 in 7.0 mi South 17.3 mph 29.9 mph N/A Rain Light Rain
8:35 PM 53.6 °F - 51.8 °F 94% 29.69 in 7.0 mi South 15.0 mph 25.3 mph N/A Rain Rain
8:55 PM 53.6 °F - 51.8 °F 94% 29.68 in 10.0 mi South 15.0 mph 21.9 mph N/A   Overcast
9:15 PM 55.4 °F - 51.8 °F 88% 29.69 in 10.0 mi South 11.5 mph 18.4 mph N/A   Overcast
9:35 PM 55.4 °F - 53.6 °F 94% 29.68 in 7.0 mi South 11.5 mph 17.3 mph N/A   Drizzle
9:55 PM 55.4 °F - 53.6 °F 94% 29.68 in 10.0 mi South 13.8 mph 23.0 mph N/A   Light Drizzle
10:15 PM 57.2 °F - 53.6 °F 88% 29.67 in 10.0 mi South 13.8 mph 20.7 mph N/A Rain Rain
10:35 PM 59.0 °F - 53.6 °F 82% 29.67 in 10.0 mi South 12.7 mph 23.0 mph N/A   Overcast
10:55 PM 59.0 °F - 53.6 °F 82% 29.67 in 10.0 mi South 16.1 mph 21.9 mph N/A   Overcast
11:15 PM 59.0 °F - 55.4 °F 88% 29.66 in 10.0 mi South 16.1 mph 23.0 mph N/A   Overcast
11:35 PM 59.0 °F - 55.4 °F 88% 29.66 in 10.0 mi SSW 12.7 mph 20.7 mph N/A   Overcast
11:55 PM 59.0 °F - 55.4 °F 88% 29.65 in 10.0 mi SSW 12.7 mph 18.4 mph N/A   Overcast